[ hide orbit diagram ]
For accurate long-term ephemerides, please instead use our Horizons system.This orbit viewer was implemented using two-body methods, and hence should not be used for determining accurate long-term trajectories (over several years or decades) or planetary encounter circumstances.
Orbital Elements at Epoch 2459000.5 (2020-May-31.0) TDB
Reference: JPL 97 (heliocentric ecliptic J2000)
Element | Value | Uncertainty (1-sigma) | Units |
e | .06577236880035019 | 3.0744e-08 | |
a | 2.470839323715336 | 5.5107e-09 | au |
q | 2.308326368469523 | 7.6748e-08 | au |
i | 4.060719412049128 | 3.3572e-06 | deg |
node | 246.7875317030217 | 4.6195e-05 | deg |
peri | 11.20702062261657 | 5.3791e-05 | deg |
M | 259.033717760862 | 2.8911e-05 | deg |
tp | 2459398.368034070397 (2021-Jul-02.86803407) | 0.00011415 | TDB |
period | 1418.617077789374 3.88 | 4.7459e-06 1.299e-08 | d yr |
n | .2537682688558824 | 8.4897e-10 | deg/d |
Q | 2.633352278961149 | 5.8731e-09 | au |
|
| | Orbit Determination Parameters
Additional Information
|
[ show covariance matrix ]
Physical Parameter Table
Parameter |
Symbol |
Value |
Units |
Sigma |
Reference |
Notes |
absolute magnitude |
H |
10.3 |
|
n/a |
MPO502155 |
|
diameter |
diameter |
50.120 |
km |
0.311 |
urn:nasa:pds:neowise_diameters_albedos::2.0[mainbelt] (http://adsabs.harvard.edu/abs/2014ApJ...791..121M) |
|
rotation period |
rot_per |
11.912 |
h |
n/a |
LCDB (Rev. 2020-October); Warner et al., 2009 |
Published Reference List: [Binzel, R.P. (1987) Icarus 72, 135-208.] [Pilcher, F.; Benishek, V.; Hills, K. (2015) Minor Planet Bull. 42, 137-139.] |
geometric albedo |
albedo |
0.062 |
|
0.007 |
urn:nasa:pds:neowise_diameters_albedos::2.0[mainbelt] (http://adsabs.harvard.edu/abs/2012ApJ...759L...8M) |
|
B-V |
BV |
0.830 |
|
0.020 |
EAR-A-5-DDR-UBV-MEAN-VALUES-V1.2 |
#obs=1; phase=4.89 deg. |
U-B |
UB |
0.340 |
|
0.030 |
EAR-A-5-DDR-UBV-MEAN-VALUES-V1.2 |
#obs=1; phase=4.89 deg. |
|
248 Lameia (A885 LA) Discovered 1885-Jun-05 by Palisa, J. at Vienna |
Reference: DISCOVERY.DB | Last Updated: 2003-08-29 |
|
[ show close-approach data ]
|